• In Österreich
  • Länderverzeichnis
  • Für 7 Tage
  • Wassertemperatur
  • Satellitenkarten
  • Wetterkarte
  • News
  • Widgets
  • user-avatar
    Anmelden

    Stündliche Wetter Rawson

    Heute, 20 Mai, Sonntag

    Zeit Temperatur Niederschläge Wind Luftdruck Luftfeuchtigkeit
    00:00 +11°C° 0 mm 7 m/S 757 mmHg 49%
    01:00 +11°C° 0 mm 6 m/S 756 mmHg 49%
    02:00 +11°C° 0 mm 6 m/S 756 mmHg 49%
    03:00 +12°C° 0,1 mm 5 m/S 756 mmHg 51%
    04:00 +12°C° 0,1 mm 4 m/S 756 mmHg 53%
    05:00 +12°C° 0,1 mm 3 m/S 756 mmHg 55%
    06:00 +12°C° 0 mm 4 m/S 756 mmHg 56%
    07:00 +11°C° 0 mm 4 m/S 756 mmHg 57%
    08:00 +11°C° 0 mm 4 m/S 756 mmHg 58%
    09:00 +11°C° 0 mm 6 m/S 757 mmHg 55%
    10:00 +12°C° 0 mm 8 m/S 757 mmHg 52%
    11:00 +13°C° 0 mm 9 m/S 757 mmHg 49%
    12:00 +13°C° 0 mm 9 m/S 758 mmHg 48%
    13:00 +13°C° 0 mm 8 m/S 758 mmHg 47%
    14:00 +15°C° 0 mm 8 m/S 758 mmHg 46%
    15:00 +14°C° 0 mm 7 m/S 758 mmHg 46%
    16:00 +14°C° 0 mm 7 m/S 759 mmHg 46%
    17:00 +13°C° 0 mm 6 m/S 759 mmHg 46%
    18:00 +11°C° 0 mm 6 m/S 760 mmHg 48%
    19:00 +11°C° 0 mm 6 m/S 760 mmHg 49%
    20:00 +10°C° 0 mm 5 m/S 760 mmHg 51%
    21:00 +9°C° 0 mm 6 m/S 761 mmHg 51%
    22:00 +9°C° 0 mm 6 m/S 761 mmHg 52%
    23:00 +9°C° 0 mm 6 m/S 761 mmHg 52%

    Morgen, 21 Mai, Montag

    Zeit Temperatur Niederschläge Wind Luftdruck Luftfeuchtigkeit
    00:00 +8°C° 0 mm 6 m/S 761 mmHg 54%
    01:00 +8°C° 0 mm 7 m/S 761 mmHg 55%
    02:00 +8°C° 0 mm 7 m/S 761 mmHg 56%
    03:00 +6°C° 0 mm 7 m/S 761 mmHg 58%
    04:00 +6°C° 0 mm 7 m/S 761 mmHg 59%
    05:00 +6°C° 0 mm 7 m/S 761 mmHg 60%
    06:00 +6°C° 0 mm 7 m/S 762 mmHg 60%
    07:00 +6°C° 0 mm 7 m/S 762 mmHg 60%
    08:00 +6°C° 0 mm 7 m/S 762 mmHg 60%
    09:00 +8°C° 0 mm 7 m/S 762 mmHg 54%
    10:00 +10°C° 0 mm 8 m/S 762 mmHg 48%
    11:00 +11°C° 0 mm 8 m/S 762 mmHg 42%
    12:00 +12°C° 0 mm 8 m/S 762 mmHg 41%
    13:00 +12°C° 0 mm 8 m/S 761 mmHg 40%
    14:00 +13°C° 0 mm 8 m/S 761 mmHg 38%
    15:00 +14°C° 0 mm 7 m/S 761 mmHg 40%
    16:00 +13°C° 0 mm 6 m/S 761 mmHg 42%
    17:00 +13°C° 0 mm 5 m/S 761 mmHg 44%
    18:00 +12°C° 0 mm 5 m/S 762 mmHg 46%
    19:00 +12°C° 0 mm 5 m/S 762 mmHg 48%
    20:00 +10°C° 0 mm 5 m/S 762 mmHg 50%
    21:00 +10°C° 0 mm 5 m/S 762 mmHg 51%
    22:00 +10°C° 0 mm 6 m/S 762 mmHg 51%
    23:00 +9°C° 0 mm 7 m/S 762 mmHg 51%

    übermorgen, 22 Mai, Dienstag

    Zeit Temperatur Niederschläge Wind Luftdruck Luftfeuchtigkeit
    00:00 +9°C° 0 mm 7 m/S 762 mmHg 52%
    01:00 +9°C° 0 mm 7 m/S 762 mmHg 54%
    02:00 +8°C° 0 mm 7 m/S 762 mmHg 55%
    03:00 +8°C° 0 mm 7 m/S 762 mmHg 55%
    04:00 +8°C° 0 mm 7 m/S 762 mmHg 56%
    05:00 +8°C° 0 mm 7 m/S 762 mmHg 56%
    06:00 +6°C° 0 mm 7 m/S 762 mmHg 57%
    07:00 +6°C° 0 mm 7 m/S 763 mmHg 59%
    08:00 +6°C° 0 mm 7 m/S 763 mmHg 60%
    09:00 +9°C° 0 mm 7 m/S 763 mmHg 56%
    10:00 +10°C° 0 mm 7 m/S 763 mmHg 52%
    11:00 +11°C° 0 mm 7 m/S 763 mmHg 48%
    12:00 +13°C° 0 mm 6 m/S 763 mmHg 46%
    13:00 +14°C° 0 mm 5 m/S 762 mmHg 43%
    14:00 +15°C° 0 mm 5 m/S 762 mmHg 41%
    15:00 +14°C° 0 mm 4 m/S 762 mmHg 43%
    16:00 +13°C° 0 mm 3 m/S 761 mmHg 45%
    17:00 +14°C° 0 mm 2 m/S 761 mmHg 47%
    18:00 +13°C° 0 mm 2 m/S 761 mmHg 48%
    19:00 +13°C° 0 mm 2 m/S 761 mmHg 50%
    20:00 +11°C° 0 mm 3 m/S 761 mmHg 51%
    21:00 +11°C° 0 mm 3 m/S 761 mmHg 50%
    22:00 +11°C° 0 mm 4 m/S 761 mmHg 50%
    23:00 +11°C° 0 mm 4 m/S 761 mmHg 49%

    23 Mai, Mittwoch

    Zeit Temperatur Niederschläge Wind Luftdruck Luftfeuchtigkeit
    00:00 +11°C° 0 mm 4 m/S 761 mmHg 50%
    01:00 +10°C° 0 mm 4 m/S 761 mmHg 51%
    02:00 +10°C° 0 mm 4 m/S 761 mmHg 52%
    03:00 +10°C° 0 mm 4 m/S 760 mmHg 51%
    04:00 +10°C° 0 mm 4 m/S 760 mmHg 49%
    05:00 +10°C° 0 mm 3 m/S 760 mmHg 48%
    06:00 +10°C° 0 mm 4 m/S 760 mmHg 47%
    07:00 +10°C° 0 mm 4 m/S 760 mmHg 47%
    08:00 +10°C° 0 mm 4 m/S 760 mmHg 46%
    09:00 +12°C° 0 mm 4 m/S 761 mmHg 42%
    10:00 +13°C° 0 mm 5 m/S 761 mmHg 39%
    11:00 +15°C° 0 mm 5 m/S 761 mmHg 35%
    12:00 +16°C° 0 mm 5 m/S 761 mmHg 34%
    13:00 +18°C° 0 mm 4 m/S 761 mmHg 34%
    14:00 +19°C° 0 mm 4 m/S 760 mmHg 33%
    15:00 +18°C° 0 mm 4 m/S 760 mmHg 36%
    16:00 +17°C° 0 mm 3 m/S 761 mmHg 39%
    17:00 +16°C° 0 mm 3 m/S 761 mmHg 42%
    18:00 +16°C° 0 mm 2 m/S 761 mmHg 43%
    19:00 +15°C° 0 mm 2 m/S 761 mmHg 45%
    20:00 +14°C° 0 mm 2 m/S 761 mmHg 46%
    21:00 +14°C° 0 mm 3 m/S 761 mmHg 46%
    22:00 +14°C° 0 mm 3 m/S 761 mmHg 46%
    23:00 +14°C° 0 mm 3 m/S 761 mmHg 46%

    24 Mai, Donnerstag

    Zeit Temperatur Niederschläge Wind Luftdruck Luftfeuchtigkeit
    00:00 +14°C° 0 mm 4 m/S 760 mmHg 46%
    01:00 +13°C° 0 mm 5 m/S 760 mmHg 45%
    02:00 +13°C° 0 mm 5 m/S 760 mmHg 45%
    03:00 +13°C° 0 mm 5 m/S 759 mmHg 44%
    04:00 +12°C° 0 mm 5 m/S 759 mmHg 44%
    05:00 +12°C° 0 mm 5 m/S 758 mmHg 44%
    06:00 +12°C° 0 mm 5 m/S 758 mmHg 45%
    07:00 +12°C° 0 mm 5 m/S 758 mmHg 46%
    08:00 +10°C° 0 mm 5 m/S 758 mmHg 47%
    09:00 +13°C° 0 mm 4 m/S 758 mmHg 44%
    10:00 +15°C° 0 mm 4 m/S 758 mmHg 41%
    11:00 +18°C° 0 mm 4 m/S 758 mmHg 38%
    12:00 +19°C° 0 mm 4 m/S 758 mmHg 36%
    13:00 +20°C° 0 mm 4 m/S 757 mmHg 35%
    14:00 +21°C° 0 mm 4 m/S 757 mmHg 33%
    15:00 +20°C° 0 mm 4 m/S 757 mmHg 36%
    16:00 +19°C° 0 mm 3 m/S 757 mmHg 40%
    17:00 +18°C° 0 mm 3 m/S 757 mmHg 44%
    18:00 +18°C° 0 mm 3 m/S 757 mmHg 46%
    19:00 +17°C° 0 mm 3 m/S 757 mmHg 47%
    20:00 +16°C° 0 mm 3 m/S 757 mmHg 49%
    21:00 +16°C° 0 mm 3 m/S 757 mmHg 50%
    22:00 +16°C° 0 mm 3 m/S 757 mmHg 51%
    23:00 +16°C° 0 mm 3 m/S 757 mmHg 51%

    25 Mai, Freitag

    Zeit Temperatur Niederschläge Wind Luftdruck Luftfeuchtigkeit
    00:00 +14°C° 0 mm 3 m/S 757 mmHg 53%
    01:00 +15°C° 0 mm 2 m/S 757 mmHg 54%
    02:00 +14°C° 0 mm 2 m/S 757 mmHg 56%
    03:00 +14°C° 0 mm 2 m/S 757 mmHg 57%
    04:00 +13°C° 0 mm 1 m/S 757 mmHg 59%
    05:00 +13°C° 0 mm 1 m/S 756 mmHg 60%
    06:00 +13°C° 0 mm 2 m/S 756 mmHg 58%
    07:00 +14°C° 0 mm 2 m/S 756 mmHg 57%
    08:00 +13°C° 0 mm 3 m/S 756 mmHg 55%
    09:00 +15°C° 0 mm 4 m/S 756 mmHg 52%
    10:00 +17°C° 0 mm 4 m/S 756 mmHg 48%
    11:00 +17°C° 0 mm 5 m/S 756 mmHg 45%
    12:00 +19°C° 0 mm 5 m/S 755 mmHg 42%
    13:00 +20°C° 0 mm 6 m/S 754 mmHg 40%
    14:00 +21°C° 0 mm 6 m/S 753 mmHg 38%
    15:00 +20°C° 0 mm 6 m/S 753 mmHg 40%
    16:00 +20°C° 0 mm 6 m/S 752 mmHg 41%
    17:00 +19°C° 0 mm 6 m/S 752 mmHg 43%
    18:00 +18°C° 0 mm 7 m/S 752 mmHg 41%
    19:00 +17°C° 0 mm 8 m/S 752 mmHg 40%
    20:00 +17°C° 0 mm 9 m/S 751 mmHg 39%
    21:00 +17°C° 0 mm 9 m/S 751 mmHg 39%
    22:00 +17°C° 0 mm 8 m/S 751 mmHg 40%
    23:00 +16°C° 0 mm 8 m/S 750 mmHg 40%
    Mehr zeigen